• Em Portugal
  • Lista de países
  • Para 7 dias
  • Temperatura da água
  • Mapas de satélite
  • Mapa do tempo
  • Widgets de tempo
  • user-avatar
    Iniciar Sessão

    Previsão horária em Santa Cruz de la Serra

    Hoje, 18 Setembro, Terça-feira

    Tempo Temperatura Precipitação Vento Pressão Humidade
    00:00 +22°C° 0 mm 0 m/s 722 mmHg 78%
    01:00 +22°C° 0 mm 0 m/s 721 mmHg 79%
    02:00 +22°C° 0 mm 0 m/s 721 mmHg 79%
    03:00 +24°C° 0 mm 1 m/s 721 mmHg 81%
    04:00 +24°C° 0 mm 1 m/s 720 mmHg 82%
    05:00 +23°C° 0 mm 1 m/s 720 mmHg 83%
    06:00 +24°C° 0 mm 2 m/s 720 mmHg 79%
    07:00 +26°C° 0 mm 3 m/s 721 mmHg 75%
    08:00 +26°C° 0 mm 4 m/s 722 mmHg 72%
    09:00 +28°C° 0 mm 4 m/s 721 mmHg 67%
    10:00 +29°C° 0 mm 5 m/s 721 mmHg 62%
    11:00 +32°C° 0 mm 6 m/s 721 mmHg 57%
    12:00 +32°C° 0 mm 6 m/s 720 mmHg 53%
    13:00 +33°C° 0 mm 6 m/s 719 mmHg 50%
    14:00 +34°C° 0 mm 6 m/s 718 mmHg 47%
    15:00 +34°C° 0 mm 6 m/s 718 mmHg 47%
    16:00 +33°C° 0 mm 6 m/s 717 mmHg 48%
    17:00 +33°C° 0 mm 6 m/s 717 mmHg 49%
    18:00 +32°C° 0 mm 5 m/s 717 mmHg 52%
    19:00 +30°C° 0 mm 5 m/s 718 mmHg 56%
    20:00 +29°C° 0 mm 5 m/s 718 mmHg 60%
    21:00 +29°C° 0 mm 5 m/s 718 mmHg 62%
    22:00 +28°C° 0 mm 5 m/s 718 mmHg 63%
    23:00 +28°C° 0 mm 5 m/s 718 mmHg 65%

    Amanhã, 19 Setembro, Quarta-feira

    Tempo Temperatura Precipitação Vento Pressão Humidade
    00:00 +28°C° 0 mm 5 m/s 718 mmHg 65%
    01:00 +28°C° 0 mm 5 m/s 718 mmHg 66%
    02:00 +27°C° 0 mm 5 m/s 717 mmHg 66%
    03:00 +27°C° 0 mm 5 m/s 717 mmHg 67%
    04:00 +27°C° 0 mm 5 m/s 717 mmHg 68%
    05:00 +27°C° 0 mm 5 m/s 717 mmHg 69%
    06:00 +28°C° 0 mm 5 m/s 718 mmHg 65%
    07:00 +29°C° 0 mm 6 m/s 718 mmHg 61%
    08:00 +30°C° 0 mm 6 m/s 719 mmHg 57%
    09:00 +33°C° 0 mm 7 m/s 719 mmHg 51%
    10:00 +35°C° 0 mm 7 m/s 719 mmHg 45%
    11:00 +36°C° 0 mm 7 m/s 719 mmHg 39%
    12:00 +38°C° 0 mm 7 m/s 719 mmHg 38%
    13:00 +39°C° 0 mm 7 m/s 718 mmHg 36%
    14:00 +39°C° 0 mm 7 m/s 717 mmHg 35%
    15:00 +39°C° 0 mm 6 m/s 717 mmHg 36%
    16:00 +38°C° 0 mm 6 m/s 717 mmHg 38%
    17:00 +36°C° 0 mm 5 m/s 717 mmHg 40%
    18:00 +35°C° 0 mm 5 m/s 718 mmHg 43%
    19:00 +33°C° 0 mm 4 m/s 719 mmHg 47%
    20:00 +31°C° 0 mm 3 m/s 719 mmHg 51%
    21:00 +31°C° 0 mm 3 m/s 720 mmHg 53%
    22:00 +30°C° 0 mm 3 m/s 720 mmHg 55%
    23:00 +30°C° 0 mm 2 m/s 721 mmHg 57%

    Depois de amanhã, 20 Setembro, Quinta-feira

    Tempo Temperatura Precipitação Vento Pressão Humidade
    00:00 +29°C° 0 mm 2 m/s 720 mmHg 59%
    01:00 +29°C° 0 mm 2 m/s 720 mmHg 61%
    02:00 +28°C° 0 mm 2 m/s 719 mmHg 63%
    03:00 +28°C° 0 mm 2 m/s 719 mmHg 65%
    04:00 +27°C° 0 mm 2 m/s 719 mmHg 67%
    05:00 +27°C° 0 mm 1 m/s 719 mmHg 69%
    06:00 +28°C° 0 mm 2 m/s 720 mmHg 64%
    07:00 +30°C° 0 mm 2 m/s 721 mmHg 60%
    08:00 +31°C° 0 mm 2 m/s 721 mmHg 55%
    09:00 +32°C° 0 mm 2 m/s 722 mmHg 51%
    10:00 +34°C° 0 mm 2 m/s 722 mmHg 47%
    11:00 +36°C° 0 mm 2 m/s 722 mmHg 43%
    12:00 +34°C° 0.1 mm 3 m/s 722 mmHg 47%
    13:00 +33°C° 0.1 mm 3 m/s 721 mmHg 50%
    14:00 +31°C° 0.1 mm 3 m/s 721 mmHg 54%
    15:00 +30°C° 0.8 mm 3 m/s 720 mmHg 57%
    16:00 +30°C° 0.8 mm 3 m/s 720 mmHg 61%
    17:00 +29°C° 0.8 mm 3 m/s 720 mmHg 64%
    18:00 +28°C° 0.2 mm 3 m/s 721 mmHg 66%
    19:00 +27°C° 0.2 mm 3 m/s 721 mmHg 68%
    20:00 +26°C° 0.2 mm 3 m/s 722 mmHg 70%
    21:00 +26°C° 0 mm 2 m/s 722 mmHg 71%
    22:00 +26°C° 0 mm 2 m/s 723 mmHg 72%
    23:00 +25°C° 0 mm 2 m/s 723 mmHg 73%

    21 Setembro, Sexta-feira

    Tempo Temperatura Precipitação Vento Pressão Humidade
    00:00 +25°C° 0.1 mm 2 m/s 723 mmHg 74%
    01:00 +25°C° 0.1 mm 2 m/s 722 mmHg 75%
    02:00 +25°C° 0.1 mm 2 m/s 722 mmHg 77%
    03:00 +24°C° 0 mm 2 m/s 722 mmHg 78%
    04:00 +24°C° 0 mm 2 m/s 722 mmHg 79%
    05:00 +23°C° 0 mm 2 m/s 722 mmHg 81%
    06:00 +24°C° 0 mm 2 m/s 723 mmHg 77%
    07:00 +25°C° 0 mm 2 m/s 723 mmHg 74%
    08:00 +26°C° 0 mm 2 m/s 724 mmHg 70%
    09:00 +28°C° 0 mm 2 m/s 724 mmHg 62%
    10:00 +31°C° 0 mm 2 m/s 724 mmHg 54%
    11:00 +33°C° 0 mm 1 m/s 725 mmHg 46%
    12:00 +34°C° 0 mm 1 m/s 724 mmHg 44%
    13:00 +35°C° 0 mm 1 m/s 723 mmHg 42%
    14:00 +36°C° 0 mm 1 m/s 722 mmHg 40%
    15:00 +35°C° 0 mm 1 m/s 722 mmHg 42%
    16:00 +34°C° 0 mm 1 m/s 721 mmHg 44%
    17:00 +33°C° 0 mm 1 m/s 721 mmHg 46%
    18:00 +32°C° 0 mm 1 m/s 721 mmHg 51%
    19:00 +28°C° 0 mm 0 m/s 721 mmHg 56%
    20:00 +27°C° 0 mm 0 m/s 721 mmHg 60%
    21:00 +26°C° 0 mm 0 m/s 721 mmHg 61%
    22:00 +28°C° 0 mm 1 m/s 721 mmHg 62%
    23:00 +28°C° 0 mm 1 m/s 722 mmHg 64%

    22 Setembro, Sábado

    Tempo Temperatura Precipitação Vento Pressão Humidade
    00:00 +27°C° 0 mm 1 m/s 721 mmHg 65%
    01:00 +27°C° 0 mm 1 m/s 721 mmHg 67%
    02:00 +26°C° 0 mm 1 m/s 720 mmHg 69%
    03:00 +24°C° 0 mm 0 m/s 720 mmHg 70%
    04:00 +24°C° 0 mm 0 m/s 720 mmHg 72%
    05:00 +23°C° 0 mm 0 m/s 720 mmHg 73%
    06:00 +27°C° 0 mm 1 m/s 721 mmHg 67%
    07:00 +29°C° 0 mm 1 m/s 721 mmHg 61%
    08:00 +30°C° 0 mm 2 m/s 722 mmHg 55%
    09:00 +33°C° 0 mm 3 m/s 722 mmHg 49%
    10:00 +36°C° 0 mm 4 m/s 722 mmHg 43%
    11:00 +39°C° 0 mm 5 m/s 722 mmHg 37%
    12:00 +39°C° 0 mm 5 m/s 720 mmHg 35%
    13:00 +40°C° 0 mm 5 m/s 719 mmHg 33%
    14:00 +41°C° 0 mm 5 m/s 718 mmHg 31%
    15:00 +40°C° 0 mm 5 m/s 718 mmHg 31%
    16:00 +40°C° 0 mm 5 m/s 718 mmHg 32%
    17:00 +39°C° 0 mm 5 m/s 717 mmHg 33%
    18:00 +36°C° 0 mm 4 m/s 718 mmHg 37%
    19:00 +35°C° 0 mm 3 m/s 718 mmHg 42%
    20:00 +32°C° 0 mm 2 m/s 719 mmHg 47%
    21:00 +31°C° 0 mm 2 m/s 719 mmHg 49%
    22:00 +30°C° 0 mm 2 m/s 719 mmHg 51%
    23:00 +30°C° 0 mm 2 m/s 720 mmHg 53%

    23 Setembro, Domingo

    Tempo Temperatura Precipitação Vento Pressão Humidade
    00:00 +30°C° 0 mm 2 m/s 719 mmHg 54%
    01:00 +29°C° 0 mm 2 m/s 719 mmHg 55%
    02:00 +29°C° 0 mm 3 m/s 718 mmHg 56%
    03:00 +29°C° 0 mm 3 m/s 719 mmHg 57%
    04:00 +29°C° 0 mm 3 m/s 719 mmHg 58%
    05:00 +28°C° 0 mm 3 m/s 719 mmHg 59%
    06:00 +29°C° 0 mm 3 m/s 719 mmHg 55%
    07:00 +30°C° 0 mm 4 m/s 720 mmHg 52%
    08:00 +33°C° 0 mm 5 m/s 721 mmHg 48%
    09:00 +35°C° 0 mm 5 m/s 721 mmHg 43%
    10:00 +38°C° 0 mm 6 m/s 721 mmHg 38%
    11:00 +40°C° 0 mm 6 m/s 721 mmHg 33%
    12:00 +40°C° 0 mm 6 m/s 720 mmHg 31%
    13:00 +41°C° 0 mm 6 m/s 719 mmHg 29%
    14:00 +42°C° 0 mm 6 m/s 719 mmHg 27%
    15:00 +41°C° 0 mm 5 m/s 718 mmHg 27%
    16:00 +41°C° 0 mm 5 m/s 718 mmHg 28%
    17:00 +40°C° 0 mm 5 m/s 718 mmHg 29%
    18:00 +37°C° 0 mm 4 m/s 718 mmHg 33%
    19:00 +36°C° 0 mm 3 m/s 719 mmHg 37%
    20:00 +34°C° 0 mm 2 m/s 719 mmHg 41%
    21:00 +32°C° 0 mm 2 m/s 720 mmHg 42%
    22:00 +32°C° 0 mm 2 m/s 720 mmHg 43%
    23:00 +31°C° 0 mm 2 m/s 721 mmHg 45%
    Mostrar mais